Weather History for KFSO - August, 2014

Change the Weather History Date:

Monday, August 18, 2014

  Actual Average (KPBG) Record (KPBG)
Temperature  
Mean Temperature 62 °F 68 °F  
Max Temperature 69 °F 79 °F 90 °F (1956)
Min Temperature 54 °F 57 °F 45 °F (1981)
Degree Days  
Heating Degree Days 4 1  
Month to date heating degree days 6  
Since 1 June heating degree days 102  
Since 1 July heating degree days 17  
Cooling Degree Days 0 3  
Month to date cooling degree days 71  
Year to date cooling degree days 284  
Since 1 June cooling degree days 276  
Growing Degree Days 12 (Base 50)    
Moisture  
Dew Point 52 °F    
Average Humidity 74    
Maximum Humidity 94    
Minimum Humidity 52    
Precipitation  
Precipitation 0.00 in - 0.51 in (1949)
Month to date precipitation  
Year to date precipitation  
Sea Level Pressure  
Sea Level Pressure 29.88 in    
Wind  
Wind Speed 3 mph (WNW)    
Max Wind Speed 7 mph    
Max Gust Speed -    
Visibility 10 miles    
Events      
T = Trace of Precipitation, MM = Missing Value Source: NWS Daily Summary

Daily Weather History Graph

Daily Weather History Graph

Search for Another Location

Airport or City:

Trip Planner

Search our weather history database for the weather conditions in past years. The results will help you decide how hot, cold, wet, or windy it might be!

Date:

Astronomy

Aug. 18, 2014 Rise Set
Actual Time 5:57 AM EDT 7:53 PM EDT
Civil Twilight 5:26 AM EDT 8:25 PM EDT
Nautical Twilight 4:47 AM EDT 9:03 PM EDT
Astronomical Twilight 4:04 AM EDT 9:46 PM EDT
Moon No Moon Rise 2:58 PM EDT (8/18)
Length of Visible Light 14h 59m
Length of Day
13h 56m
Last Quarter, 38% of the Moon is Illuminated
Aug 18
Last Quarter
Aug 25
New
Sep 2
First Quarter
Sep 8
Full
Sep 15
Last Quarter

Hourly Weather History & Observations

Time (EDT) Temp. Dew Point Humidity Pressure Visibility Wind Dir Wind Speed Gust Speed Precip Events Conditions
12:15 AM 61.0 °F 57.2 °F 87% 29.85 in 10.0 mi West 3.5 mph - N/A   Mostly Cloudy
12:35 AM 60.8 °F 56.8 °F 87% 29.86 in 10.0 mi West 3.5 mph - N/A   Mostly Cloudy
12:55 AM 59.9 °F 56.3 °F 88% 29.86 in 10.0 mi WNW 3.5 mph - N/A   Mostly Cloudy
1:15 AM 58.8 °F 55.4 °F 88% 29.86 in 10.0 mi West 4.6 mph - N/A   Scattered Clouds
1:35 AM 59.0 °F 54.7 °F 86% 29.86 in 10.0 mi WNW 3.5 mph - N/A   Overcast
1:55 AM 58.1 °F 54.1 °F 87% 29.86 in 10.0 mi WNW 5.8 mph - N/A   Overcast
2:15 AM 58.1 °F 54.0 °F 86% 29.86 in 10.0 mi NW 3.5 mph - N/A   Overcast
2:35 AM 57.7 °F 53.8 °F 87% 29.85 in 10.0 mi NW 3.5 mph - N/A   Overcast
2:55 AM 57.4 °F 53.8 °F 88% 29.85 in 10.0 mi NW 3.5 mph - N/A   Overcast
3:15 AM 57.6 °F 53.8 °F 87% 29.85 in 10.0 mi West 3.5 mph - N/A   Overcast
3:35 AM 57.6 °F 53.8 °F 87% 29.85 in 10.0 mi Calm Calm - N/A   Overcast
3:55 AM 57.6 °F 53.6 °F 87% 29.85 in 10.0 mi Calm Calm - N/A   Overcast
4:15 AM 57.4 °F 53.6 °F 87% 29.85 in 10.0 mi WNW 3.5 mph - N/A   Overcast
4:35 AM 57.2 °F 53.2 °F 87% 29.86 in 10.0 mi West 3.5 mph - N/A   Overcast
4:55 AM 56.8 °F 53.1 °F 87% 29.86 in 10.0 mi West 3.5 mph - N/A   Overcast
5:15 AM 56.5 °F 53.2 °F 89% 29.86 in 10.0 mi Calm Calm - N/A   Overcast
5:35 AM 56.5 °F 53.1 °F 88% 29.87 in 10.0 mi Calm Calm - N/A   Overcast
5:55 AM 56.5 °F 53.1 °F 88% 29.88 in 10.0 mi Calm Calm - N/A   Overcast
6:15 AM 56.7 °F 52.7 °F 87% 29.88 in 10.0 mi Calm Calm - N/A   Overcast
6:35 AM 56.7 °F 51.8 °F 84% 29.89 in 10.0 mi WNW 3.5 mph - N/A   Overcast
6:55 AM 56.5 °F 51.1 °F 82% 29.89 in 10.0 mi Calm Calm - N/A   Overcast
7:15 AM 56.5 °F 50.9 °F 82% 29.89 in 10.0 mi NW 3.5 mph - N/A   Overcast
7:35 AM 56.3 °F 50.4 °F 80% 29.90 in 10.0 mi Calm Calm - N/A   Scattered Clouds
7:55 AM 57.0 °F 50.5 °F 79% 29.90 in 10.0 mi WNW 4.6 mph - N/A   Clear
8:15 AM 56.7 °F 49.5 °F 77% 29.91 in 10.0 mi NW 3.5 mph - N/A   Mostly Cloudy
8:35 AM 57.9 °F 50.0 °F 75% 29.91 in 10.0 mi NW 5.8 mph - N/A   Overcast
8:55 AM 58.3 °F 50.4 °F 75% 29.91 in 10.0 mi WNW 4.6 mph - N/A   Overcast
9:15 AM 57.7 °F 50.0 °F 75% 29.91 in 10.0 mi Calm Calm - N/A   Mostly Cloudy
9:35 AM 59.4 °F 50.4 °F 72% 29.91 in 10.0 mi NW 4.6 mph - N/A   Scattered Clouds
9:55 AM 61.2 °F 50.4 °F 68% 29.91 in 10.0 mi North 6.9 mph - N/A   Scattered Clouds
10:15 AM 61.7 °F 50.4 °F 66% 29.92 in 10.0 mi NNW 3.5 mph - N/A   Scattered Clouds
10:35 AM 62.4 °F 50.5 °F 65% 29.92 in 10.0 mi West 5.8 mph - N/A   Scattered Clouds
10:55 AM 61.9 °F 50.4 °F 66% 29.92 in 10.0 mi West 4.6 mph - N/A   Scattered Clouds
11:15 AM 61.0 °F 50.0 °F 67% 29.91 in 10.0 mi NNW 3.5 mph - N/A   Scattered Clouds
11:35 AM 63.7 °F 50.7 °F 63% 29.91 in 10.0 mi NW 4.6 mph - N/A   Scattered Clouds
11:55 AM 63.5 °F 50.2 °F 62% 29.90 in 10.0 mi WNW 5.8 mph - N/A   Scattered Clouds
12:15 PM 65.3 °F 50.7 °F 59% 29.90 in 10.0 mi NNW 5.8 mph - N/A   Scattered Clouds
12:35 PM 65.3 °F 50.7 °F 59% 29.89 in 10.0 mi West 4.6 mph - N/A   Scattered Clouds
12:55 PM 66.2 °F 51.1 °F 58% 29.89 in 10.0 mi WNW 3.5 mph - N/A   Mostly Cloudy
1:15 PM 66.9 °F 51.1 °F 57% 29.89 in 10.0 mi NW 3.5 mph - N/A   Mostly Cloudy
1:35 PM 65.5 °F 50.0 °F 57% 29.89 in 10.0 mi NW 4.6 mph - N/A   Mostly Cloudy
1:55 PM 65.3 °F 50.0 °F 58% 29.89 in 10.0 mi NW 4.6 mph - N/A   Overcast
2:15 PM 65.8 °F 50.5 °F 58% 29.88 in 10.0 mi North 4.6 mph - N/A   Overcast
2:35 PM 66.9 °F 50.5 °F 56% 29.88 in 10.0 mi WNW 4.6 mph - N/A   Mostly Cloudy
2:55 PM 68.0 °F 50.4 °F 53% 29.88 in 10.0 mi West 4.6 mph - N/A   Mostly Cloudy
3:15 PM 68.5 °F 51.3 °F 54% 29.87 in 10.0 mi North 6.9 mph - N/A   Mostly Cloudy
3:35 PM 68.7 °F 51.1 °F 53% 29.87 in 10.0 mi West 4.6 mph - N/A   Mostly Cloudy
3:55 PM 66.6 °F 49.8 °F 55% 29.87 in 10.0 mi West 4.6 mph - N/A   Mostly Cloudy
4:15 PM 67.1 °F 51.6 °F 57% 29.87 in 10.0 mi NW 4.6 mph - N/A   Overcast
4:35 PM 69.3 °F 52.2 °F 54% 29.87 in 10.0 mi West 5.8 mph - N/A   Overcast
4:55 PM 68.9 °F 51.1 °F 53% 29.87 in 10.0 mi WNW 5.8 mph - N/A   Overcast
5:15 PM 69.6 °F 51.1 °F 52% 29.87 in 10.0 mi NNW 4.6 mph - N/A   Mostly Cloudy
5:35 PM 68.9 °F 50.9 °F 53% 29.87 in 10.0 mi NW 5.8 mph - N/A   Mostly Cloudy
5:55 PM 68.5 °F 51.1 °F 54% 29.87 in 10.0 mi West 4.6 mph - N/A   Scattered Clouds
6:15 PM 67.3 °F 50.7 °F 55% 29.87 in 10.0 mi Calm Calm - N/A   Scattered Clouds
6:35 PM 67.6 °F 53.1 °F 59% 29.87 in 10.0 mi Calm Calm - N/A   Scattered Clouds
6:55 PM 66.0 °F 51.3 °F 59% 29.88 in 10.0 mi Calm Calm - N/A   Scattered Clouds
7:15 PM 64.6 °F 51.6 °F 63% 29.88 in 10.0 mi Calm Calm - N/A   Scattered Clouds
7:35 PM 62.6 °F 53.1 °F 71% 29.88 in 7.0 mi Calm Calm - N/A   Mostly Cloudy
7:55 PM 61.7 °F 52.3 °F 71% 29.89 in 10.0 mi Calm Calm - N/A   Scattered Clouds
8:15 PM 58.5 °F 52.7 °F 81% 29.89 in 10.0 mi Calm Calm - N/A   Scattered Clouds
8:35 PM 57.6 °F 53.1 °F 85% 29.90 in 10.0 mi Calm Calm - N/A   Clear
8:55 PM 57.7 °F 54.5 °F 89% 29.90 in 10.0 mi Calm Calm - N/A   Mostly Cloudy
9:15 PM 58.5 °F 55.6 °F 90% 29.90 in 10.0 mi Calm Calm - N/A   Overcast
9:35 PM 58.5 °F 54.9 °F 88% 29.90 in 10.0 mi Calm Calm - N/A   Overcast
9:55 PM 58.5 °F 55.4 °F 90% 29.90 in 10.0 mi Calm Calm - N/A   Overcast
10:15 PM 58.6 °F 55.2 °F 88% 29.90 in 10.0 mi Calm Calm - N/A   Overcast
10:35 PM 57.2 °F 53.8 °F 88% 29.90 in 10.0 mi Calm Calm - N/A   Mostly Cloudy
10:55 PM 55.2 °F 53.2 °F 93% 29.90 in 10.0 mi Calm Calm - N/A   Mostly Cloudy
11:15 PM 54.9 °F 52.9 °F 93% 29.90 in 10.0 mi Calm Calm - N/A   Mostly Cloudy
11:35 PM 55.0 °F 53.2 °F 94% 29.90 in 10.0 mi Calm Calm - N/A   Overcast